Terug naar catalogus

FENGYUN 1C DEB

ActiefSSO
NORAD 30696·DEBRIS·🇨🇳 China

Gelanceerd May 10, 1999 vanaf Taiyuan Satellite Launch Center

Loading…

Volgende Passages (komende 24 uur)

TLE

VersSource: Space-Track

Epoch: Sep 14, 2026, 15:37 UTC

1 30696U 99025ARE 26257.65076402  .00001547  00000-0  42591-3 0  9992
2 30696  98.3603 308.0170 0086778  10.0321 144.7911 14.46139890 22777

Volg FENGYUN 1C DEB in realtime met AllMySat

Download on the App Store